Location: Exeidioux
(45.6312°N, 1.6819°E)
Time: 15:45:39
(UTC+00:00)

Cosmos 1302 Rocket - Pass Details

Date: 03 March 2021
Orbit: 756 x 777 km, 74.0° (Epoch: 11 April)

Event Time Altitude Azimuth Distance (km) Brightness Sun altitude
Rises 18:07:06 0° 200° (SSW) 3,197 7.6 -5.0°
Reaches altitude 10° 18:09:26 10° 201° (SSW) 2,277 6.8 -5.4°
Maximum altitude 18:14:37 87° 291° (WNW) 765 4.1 -6.3°
Drops below altitude 10° 18:19:51 10° 21° (NNE) 2,301 6.3 -7.2°
Sets 18:22:14 0° 22° (NNE) 3,234 7.0 -7.6°
